Location: State Camp
(41.2367°N, 77.7828°W)
Time: 14:28:09
(UTC-05:00)

ADEOS Rocket - Visible Passes

Search period start: 24 February 2017 00:00
Search period end: 06 March 2017 00:00
Orbit: 859 x 1306 km, 98.7° (Epoch: 23 February)

Date Brightness Start Highest point End Pass type
(mag) Time Alt. Az. Time Alt. Az. Time Alt. Az.
24 Feb 4.7 03:23:07 10° N 03:26:05 27° N 03:26:05 27° N visible
24 Feb 5.0 05:11:05 10° NNW 05:13:02 13° NW 05:13:02 13° NW visible
25 Feb 5.2 02:34:25 10° NNE 02:36:33 21° NNE 02:36:33 21° NNE visible
25 Feb 4.6 04:20:23 10° N 04:23:30 23° NNW 04:23:30 23° NNW visible
26 Feb 5.8 01:46:46 10° NE 01:47:01 11° NE 01:47:01 11° NE visible
26 Feb 4.6 03:30:54 10° N 03:33:58 28° N 03:33:58 28° N visible
26 Feb 5.0 05:19:46 10° NW 05:20:56 11° NW 05:20:56 11° NW visible
27 Feb 5.1 02:42:04 10° NNE 02:44:26 23° NNE 02:44:26 23° NNE visible
27 Feb 4.6 04:28:20 10° N 04:31:23 21° NNW 04:31:23 21° NNW visible
28 Feb 5.7 01:54:09 10° NE 01:54:54 12° NE 01:54:54 12° NE visible
28 Feb 4.5 03:38:41 10° N 03:41:51 29° N 03:41:51 29° N visible
01 Mar 4.9 02:49:44 10° NNE 02:52:19 25° NNE 02:52:19 25° NNE visible
01 Mar 4.6 04:36:19 10° NNW 04:39:16 19° NW 04:39:16 19° NW visible
02 Mar 5.6 02:01:36 10° NE 02:02:46 14° NE 02:02:46 14° NE visible
02 Mar 4.4 03:46:30 10° N 03:49:44 28° NNW 03:49:44 28° NNW visible
03 Mar 4.7 02:57:25 10° NNE 03:00:11 27° NNE 03:00:11 27° NNE visible
03 Mar 4.7 04:44:22 10° NNW 04:47:09 17° NW 04:47:09 17° NW visible
04 Mar 5.4 02:09:05 10° NNE 02:10:39 16° NE 02:10:39 16° NE visible
04 Mar 4.3 03:54:18 10° N 03:57:36 28° NNW 03:57:36 28° NNW visible
05 Mar 4.5 03:05:06 10° NNE 03:08:04 29° NNE 03:08:04 29° NNE visible
05 Mar 4.7 04:52:31 10° NNW 04:55:01 15° NW 04:55:01 15° NW visible
